Change the Weather History Date:

Friday, October 12, 2012

  Actual Average Record
Temperature  
Mean Temperature 43 °F 46 °F  
Max Temperature 58 °F 57 °F 87 °F (1934)
Min Temperature 28 °F 35 °F 3 °F (1917)
Degree Days  
Heating Degree Days 22 19  
Month to date heating degree days 275 196  
Since 1 July heating degree days 485 516  
Cooling Degree Days 0 0  
Month to date cooling degree days 0 0  
Year to date cooling degree days 594 444  
Moisture  
Dew Point 29 °F    
Average Humidity 61    
Maximum Humidity 85    
Minimum Humidity 36    
Precipitation  
Precipitation 0.00 in 0.04 in 0.75 in (2008)
Month to date precipitation 1.34 0.53  
Year to date precipitation 12.27 15.43  
Sea Level Pressure  
Sea Level Pressure 29.94 in    
Wind  
Wind Speed 14 mph (SSE)    
Max Wind Speed 30 mph    
Max Gust Speed 38 mph    
Visibility 10 miles    
Events      
T = Trace of Precipitation, MM = Missing Value Source: NWS Daily Summary

Daily Weather History Graph

Daily Weather History Graph

Search for Another Location

Airport or City:

Trip Planner

Search our weather history database for the weather conditions in past years. The results will help you decide how hot, cold, wet, or windy it might be!

Date:

Astronomy

Oct. 12, 2012 Rise Set
Actual Time 8:01 AM CDT 7:00 PM CDT
Civil Twilight 7:29 AM CDT 7:32 PM CDT
Nautical Twilight 6:53 AM CDT 8:08 PM CDT
Astronomical Twilight 6:17 AM CDT 8:44 PM CDT
Moon 4:33 AM CDT (10/12) 5:21 PM CDT (10/12)
Length of Visible Light 12h 02m
Length of Day
10h 59m
Waning Crescent, 10% of the Moon is Illuminated
Oct 12
Waning Crescent
Oct 15
New
Oct 21
First Quarter
Oct 29
Full
Nov 6
Last Quarter

Hourly Weather History & Observations

Time (CDT) Temp. Windchill Dew Point Humidity Pressure Visibility Wind Dir Wind Speed Gust Speed Precip Events Conditions
12:54 AM 28.0 °F 21.7 °F 23.0 °F 81% 30.32 in 10.0 mi SSE 5.8 mph - N/A   Clear
1:54 AM 28.9 °F 21.9 °F 23.0 °F 78% 30.29 in 10.0 mi SSE 6.9 mph - N/A   Clear
2:54 AM 28.9 °F 19.2 °F 24.1 °F 82% 30.25 in 10.0 mi SE 11.5 mph - N/A   Mostly Cloudy
3:54 AM 32.0 °F 24.8 °F 25.0 °F 75% 30.21 in 10.0 mi SE 8.1 mph - N/A   Overcast
4:54 AM 35.1 °F 29.3 °F 27.0 °F 72% 30.19 in 10.0 mi SSE 6.9 mph - N/A   Overcast
5:54 AM 35.1 °F 27.9 °F 26.1 °F 70% 30.16 in 10.0 mi SSE 9.2 mph - N/A   Overcast
6:54 AM 32.0 °F 24.8 °F 25.0 °F 75% 30.13 in 10.0 mi SE 8.1 mph - N/A   Scattered Clouds
7:54 AM 32.0 °F 24.8 °F 26.1 °F 79% 30.12 in 10.0 mi ESE 8.1 mph - N/A   Scattered Clouds
8:54 AM 35.6 °F 27.1 °F 26.6 °F 70% 30.02 in 10.0 mi SE 12.7 mph 21.9 mph N/A   Clear
9:54 AM 39.0 °F 28.3 °F 28.9 °F 67% 30.05 in 10.0 mi South 24.2 mph 33.4 mph N/A   Clear
10:54 AM 42.8 °F 33.1 °F 30.2 °F 61% 29.94 in 10.0 mi South 25.3 mph 38.0 mph N/A   Clear
11:54 AM 46.9 °F - 30.0 °F 52% 29.96 in 10.0 mi South 23.0 mph 34.5 mph N/A   Clear
12:54 PM 50.0 °F - 30.0 °F 46% 29.92 in 10.0 mi South 21.9 mph 32.2 mph N/A   Clear
1:54 PM 52.0 °F - 30.0 °F 43% 29.87 in 10.0 mi SSE 26.5 mph 35.7 mph N/A   Clear
2:54 PM 54.0 °F - 30.0 °F 40% 29.82 in 10.0 mi South 25.3 mph 31.1 mph N/A   Clear
3:54 PM 57.0 °F - 30.9 °F 37% 29.78 in 10.0 mi SSE 21.9 mph 28.8 mph N/A   Clear
4:54 PM 57.2 °F - 30.2 °F 36% 29.72 in 10.0 mi SSE 20.7 mph 27.6 mph N/A   Clear
5:54 PM 57.0 °F - 32.0 °F 39% 29.73 in 10.0 mi SSE 15.0 mph - N/A   Clear
6:54 PM 52.0 °F - 33.1 °F 49% 29.73 in 10.0 mi SSE 6.9 mph - N/A   Clear
7:54 PM 46.0 °F - 32.0 °F 58% 29.72 in 10.0 mi Calm Calm - N/A   Clear
8:54 PM 42.8 °F 39.3 °F 32.0 °F 66% 29.65 in 10.0 mi SE 5.8 mph - N/A   Clear
9:54 PM 42.1 °F - 30.9 °F 65% 29.67 in 10.0 mi Calm Calm - N/A   Clear
10:54 PM 51.1 °F - 32.0 °F 48% 29.65 in 10.0 mi SSW 8.1 mph - N/A   Clear
11:54 PM 52.0 °F - 33.1 °F 49% 29.62 in 10.0 mi SSW 15.0 mph 24.2 mph N/A   Clear